Debrecen, Hungary

5:38 PM CEST on May 28, 2017 (GMT +0200)
Debrecen

Weather History for LHDC - December, 2013

Change the Weather History Date:

Monday, December 30, 2013

  Actual Average Record
Temperature  
Mean Temperature 38 °F -  
Max Temperature 49 °F 33 °F - ()
Min Temperature 28 °F 22 °F - ()
Degree Days  
Heating Degree Days 26    
Moisture  
Dew Point 33 °F    
Average Humidity 75    
Maximum Humidity 100    
Minimum Humidity 46    
Precipitation  
Precipitation 0.00 in 0.05 in - ()
Sea Level Pressure  
Sea Level Pressure 30.30 in    
Wind  
Wind Speed 5 mph ()    
Max Wind Speed 13 mph    
Max Gust Speed -    
Visibility 5.9 miles    
Events      
T = Trace of Precipitation, MM = Missing Value Source: Averaged Metar Reports

Daily Weather History Graph

Daily Weather History Graph

Search for Another Location

Airport or City:

Trip Planner

Search our weather history database for the weather conditions in past years. The results will help you decide how hot, cold, wet, or windy it might be!

Date:

Astronomy

Dec. 30, 2013 Rise Set
Actual Time 7:21 AM CET 3:51 PM CET
Civil Twilight 6:45 AM CET 4:27 PM CET
Nautical Twilight 6:06 AM CET 5:06 PM CET
Astronomical Twilight 5:28 AM CET 5:43 PM CET
Moon 4:46 AM CET (12/30) 2:10 PM CET (12/30)
Length of Visible Light 9h 41m
Length of Day
8h 30m
Waning Crescent, 6% of the Moon is Illuminated
Dec 30
Waning Crescent
Jan 1
New
Jan 8
First Quarter
Jan 16
Full
Jan 24
Last Quarter

Hourly Weather History & Observations

Time (CET) Temp. Windchill Dew Point Humidity Pressure Visibility Wind Dir Wind Speed Gust Speed Precip Events Conditions
12:00 AM 32 °F - 31 °F 93% 30.22 in - NNW 4.5 mph - -  
1:00 AM 33 °F - 31 °F 91% 30.23 in - North 2.2 mph - -  
1:32 AM 33.8 °F - 32.0 °F 93% 30.24 in - North - - N/A   Unknown
2:00 AM 33 °F - 32 °F 96% 30.25 in - NNW 4.5 mph - -  
3:00 AM 32 °F - 31 °F 96% 30.26 in - Calm Calm - -  
4:00 AM 31 °F - 30 °F 93% 30.26 in - Calm Calm - -  
5:00 AM 31 °F - 30 °F 95% 30.27 in - NW 4.5 mph - -  
5:11 AM 32.0 °F 26.4 °F 30.2 °F 93% 30.27 in 1.9 mi WNW 5.8 mph - N/A   Overcast
5:15 AM 32.0 °F 26.4 °F 30.2 °F 93% 30.27 in 1.7 mi WNW 5.8 mph - N/A   Overcast
5:45 AM 30.2 °F - 30.2 °F 100% 30.27 in 1.7 mi ENE 2.3 mph - N/A   Overcast
6:00 AM 31 °F - 30 °F 93% 30.29 in 2 mi ENE 2.2 mph - -   Mist
6:00 AM - - - N/A% - 2.2 mi NNE 6.9 mph - N/A   Mostly Cloudy
6:15 AM 28.4 °F - 28.4 °F 100% 30.27 in 1.6 mi SSE 1.2 mph - N/A   Overcast
6:45 AM 30.2 °F - 28.4 °F 93% 30.27 in 1.4 mi SW 1.2 mph - N/A   Overcast
7:00 AM 30 °F - 29 °F 94% 30.31 in 1 mi SW 2.2 mph - -   Mist
7:15 AM 30.2 °F - 28.4 °F 93% 30.30 in 1.1 mi South 1.2 mph - N/A   Overcast
7:45 AM 28.4 °F - 28.4 °F 100% 30.30 in 1.1 mi East 2.3 mph - N/A   Overcast
8:00 AM 29 °F - 28 °F 94% 30.32 in 1 mi East 2.2 mph - -   Mist
8:15 AM 30.2 °F - 28.4 °F 93% 30.30 in 1.1 mi East 2.3 mph - N/A   Overcast
8:45 AM 32.0 °F - 30.2 °F 93% 30.30 in 1.8 mi Calm Calm - N/A   Overcast
9:00 AM 31 °F - 30 °F 96% 30.33 in 2 mi Calm Calm - -   Mist
9:00 AM - - - N/A% - 1.9 mi Variable 3.5 mph - N/A   Mist
9:06 AM 37.4 °F 32.8 °F 35.6 °F 93% 30.33 in - NE 5.8 mph - N/A   Unknown
9:15 AM 37.4 °F 32.1 °F 37.4 °F 100% 30.30 in - NE 6.9 mph - N/A   Overcast
9:42 AM 42.8 °F 37.5 °F 35.6 °F 76% 30.33 in 3.7 mi NNE 9.2 mph - N/A   Overcast
9:45 AM 42.8 °F 37.0 °F 35.6 °F 76% 30.30 in - NNE 10.4 mph - N/A   Clear
10:00 AM 42 °F - 36 °F 72% 30.33 in 6 mi NNE 8.9 mph - -   Partly Cloudy
10:15 AM 42.8 °F 36.2 °F 35.6 °F 76% 30.30 in - NNE 12.7 mph - N/A   Clear
10:45 AM 46.4 °F 41.9 °F 35.6 °F 66% 30.30 in - NNE 9.2 mph - N/A   Clear
11:00 AM 46 °F - 36 °F 59% 30.32 in 12 mi NNE 8.9 mph - -   Partly Cloudy
11:15 AM 46.4 °F 40.7 °F 35.6 °F 66% 30.30 in - NE 12.7 mph - N/A   Clear
11:45 AM 46.4 °F 41.1 °F 35.6 °F 66% 30.30 in - NNE 11.5 mph - N/A   Clear
12:00 PM 47 °F - 35 °F 53% 30.32 in 16 mi NNE 11.2 mph - -   Partly Cloudy
12:00 PM - - - N/A% - - NE 11.5 mph - N/A   Clear
12:15 PM 48.2 °F - 35.6 °F 62% 30.30 in - NNE 9.2 mph - N/A   Clear
12:45 PM 50.0 °F - 33.8 °F 54% 30.30 in - North 10.4 mph - N/A   Clear
1:00 PM 49 °F - 35 °F 46% 30.30 in 19 mi North 11.2 mph - -   Partly Cloudy
1:15 PM 50.0 °F - 33.8 °F 54% 30.30 in - NNE 11.5 mph - N/A   Clear
1:45 PM 50.0 °F - 33.8 °F 54% 30.30 in - NNE 11.5 mph - N/A   Clear
2:00 PM 49 °F - 35 °F 46% 30.30 in 19 mi NNE 11.2 mph - -   Partly Cloudy
2:15 PM 48.2 °F - 33.8 °F 58% 30.30 in - NNE 12.7 mph - N/A   Clear
2:45 PM 48.2 °F - 33.8 °F 58% 30.30 in - NE 12.7 mph - N/A   Clear
3:00 PM 48 °F - 34 °F 46% 30.30 in 19 mi NE 11.2 mph - -   Partly Cloudy
3:15 PM 46.4 °F 41.1 °F 33.8 °F 62% 30.30 in - NNE 11.5 mph - N/A   Clear
3:45 PM 46.4 °F 41.5 °F 33.8 °F 62% 30.30 in - NNE 10.4 mph - N/A   Clear
4:00 PM 46 °F - 33 °F 50% 30.31 in 12 mi NNE 8.9 mph - -   Partly Cloudy
4:15 PM 44.6 °F 39.7 °F 33.8 °F 66% 30.30 in - NNE 9.2 mph - N/A   Clear
4:45 PM 44.6 °F 39.7 °F 33.8 °F 66% 30.30 in - North 9.2 mph - N/A   Clear
5:00 PM 45 °F - 33 °F 53% 30.32 in 12 mi North 8.9 mph - -   Partly Cloudy
5:00 PM - - - N/A% - - North - - N/A   Unknown
6:00 PM 44 °F - 34 °F 57% 30.32 in - NNE 11.2 mph - -  
7:00 PM 43 °F - 33 °F 57% 30.32 in - NNE 13.4 mph - -  
8:00 PM 41 °F - 33 °F 62% 30.32 in - NNE 8.9 mph - -  
9:00 PM 40 °F - 32 °F 63% 30.33 in - NNE 6.7 mph - -  
10:00 PM 40 °F - 32 °F 64% 30.34 in - NE 8.9 mph - -  
11:00 PM 38 °F - 32 °F 71% 30.33 in - NE 4.5 mph - -